Regional Weather Roundup
Issued by NWS San Angelo, TX

Home | Current Version | Previous Version | Text Only | Print | Product List | Glossary On
Versions: 1 2 3 4 5 6 7 8 9 10 11 12 13 14 15 16 17 18 19 20 21 22 23 24 25 26 27 28 29 30 31 32 33 34 35 36 37 38 39 40 41 42 43 44 45 46 47 48 49 50
000
ASUS44 KSJT 180110
RWRSJT
WEST CENTRAL TEXAS REGIONAL WEATHER ROUNDUP
NATIONAL WEATHER SERVICE SAN ANGELO TX
700 PM CST FRI NOV 17 2017

NOTE: "FAIR" INDICATES FEW OR NO CLOUDS BELOW 12,000 FEET WITH NO
SIGNIFICANT WEATHER AND/OR OBSTRUCTIONS TO VISIBILITY.

TXZ049-054-064>066-071>073-076>078-098-099-113-114-127-128-139-140-
154-155-168>170-180200
...LOCATIONS ACROSS WEST CENTRAL TEXAS...

CITY           SKY/WX    TMP DP  RH WIND       PRES   REMARKS
SAN ANGELO     CLEAR     75  57  53 S13       29.83R
ABILENE        CLOUDY    75  57  53 SW13      29.77R
DYESS AFB      PTCLDY    77  58  51 S14       29.75S
JUNCTION       CLEAR     73  64  73 S9        29.87R
SWEETWATER     CLOUDY    74  40  29 S13       29.81S
BROWNWOOD      CLOUDY    75  59  57 S12       29.80S
COLEMAN        CLOUDY    76  58  54 S14       29.80S
SONORA         CLEAR     72  61  68 S7        29.93R
OZONA          FAIR      68  59  73 S9G16     29.91S
BRADY          NOT AVBL
$$

TEXAS PANHANDLE/OKLAHOMA PANHANDLE

CITY           SKY/WX    TMP DP  RH WIND       PRES   REMARKS
AMARILLO       CLEAR     68  30  24 W12       29.74R
BORGER         CLOUDY    78  30  17 W17G28    29.67R
CANADIAN       CLOUDY    73  32  22 SW7       29.61R
DALHART        CLOUDY    73  36  25 W29G41    29.73R
DUMAS          CLOUDY    68  30  24 SW18      29.69F
GUYMON         NOT AVBL
HEREFORD       CLOUDY    73  28  18 MISG      29.78S
PAMPA          CLEAR     76  30  18 W21G33    29.69R
PERRYTON       CLOUDY    76  32  20 SW20G25   29.59S
$$

SOUTHERN PANHANDLE/SOUTH PLAINS/ROLLING PLAINS

CITY           SKY/WX    TMP DP  RH WIND       PRES   REMARKS
LUBBOCK        PTCLDY    73  25  16 SW14      29.78R
SNYDER         CLOUDY    71  37  28 SW9       29.79S
CHILDRESS      CLOUDY    74  38  27 S9        29.66F
SEMINOLE       CLOUDY    66  31  26 SW5       29.85R
$$

PERMIAN BASIN

CITY           SKY/WX    TMP DP  RH WIND       PRES   REMARKS
MIDLAND        CLOUDY    73  33  23 W9        29.84S
ODESSA         CLOUDY    73  30  20 SW9       29.86R
WINK           CLOUDY    70  29  21 W10       29.84R
$$

FAR WEST/SOUTHWEST MOUNTAINS/TRANS PECOS

CITY           SKY/WX    TMP DP  RH WIND       PRES   REMARKS
ALPINE         CLEAR     68  27  21 S5        30.06R
DRYDEN           N/A     65  58  78 NE5       29.88R
EL PASO        MOCLDY    78  19  11 W16       29.95R
FORT STOCKTON  CLEAR     74  31  20 SW7       29.89R
GUADALUPE PASS CLOUDY    68  22  17 W30G38    30.02R
MARFA          CLEAR     59  26  28 MISG      30.05R
PECOS          CLEAR     74  28  18 SW9       29.85S
$$

DALLAS/FORT WORTH METROPLEX

CITY           SKY/WX    TMP DP  RH WIND       PRES   REMARKS
DFW AIRPORT    PTCLDY    78  64  61 S15       29.72R
FTW MEACHAM    PTCLDY    79  65  62 S13G22    29.73S
DAL-EXECUTIVE  CLEAR     77  65  66 S13       29.74F
GRAND PRAIRIE  CLEAR     77  62  60 S9        29.76R
ADDISON        CLEAR     79  63  57 S13G23    29.74S
MESQUITE       CLEAR     75  64  69 S13       29.76F
LANCASTER      CLEAR     76  64  66 S9G17     29.76F
$$

NORTH CENTRAL TEXAS

CITY           SKY/WX    TMP DP  RH WIND       PRES   REMARKS
SHRMAN/DENISON CLEAR     74  64  70 S18G25    29.70F
GAINESVILLE    CLEAR     74  63  66 S12       29.71F
BRIDGEPORT     NOT AVBL
DENTON         CLEAR     78  64  61 S14       29.72S
WAXAHACHIE     CLOUDY    74  65  73 S10       29.77S
GRANBURY       CLOUDY    78  62  58 S15       29.75S
$$

WESTERN NORTH TEXAS

CITY           SKY/WX    TMP DP  RH WIND       PRES   REMARKS
WICHITA FALLS  CLEAR     78  57  48 S21       29.64F
VERNON         CLOUDY    77  42  28 S16       29.65S
BRECKENRIDGE   CLOUDY    79  59  50 S15       29.73S HAZE
COMANCHE       CLOUDY    74  63  66 S15G21    29.80R
$$

CENTRAL AND SOUTH CENTRAL TEXAS

CITY           SKY/WX    TMP DP  RH WIND       PRES   REMARKS
AUSTIN/BERGSTM CLOUDY    73  65  75 S8        29.85R
WACO           PTCLDY    74  64  71 S8        29.80R
HILLSBORO      CLEAR     74  65  71 S12       29.77S
TEMPLE         PTCLDY    77  65  66 S17       29.82S
KILLEEN-GRAY   CLEAR     75  63  66 S13       29.82R
FORT HOOD      CLEAR     75  63  65 S9        29.79R
GEORGETOWN     CLEAR     78  65  63 S9G16     29.85S
LAGO VISTA     FAIR      76  64  65 S10       29.86S
SAN MARCOS     CLOUDY    76  64  66 S10       29.87S
NEW BRAUNFELS  CLEAR     75  64  68 S9        29.86R
RANDOLPH AFB   CLEAR     76  65  68 S6        29.87S
SAN ANTONIO    PTCLDY    79  64  60 S8        29.88R
STINSON        CLEAR     78  65  63 S6        29.85S
PLEASANTON     NOT AVBL
LA GRANGE      CLOUDY    76  68  76 S9        29.86R
GIDDINGS       CLEAR     76  66  70 S9        29.87R
$$

EAST TEXAS

CITY           SKY/WX    TMP DP  RH WIND       PRES   REMARKS
PARIS          CLEAR     72  64  76 S14       29.74F
CLARKSVILLE    NOT AVBL
TYLER          CLEAR     74  65  73 S13       29.80S
LONGVIEW       PTCLDY    73  66  78 S12       29.81S
PALESTINE      CLEAR     74  65  72 SE7       29.83F
NACOGDOCHES    PTCLDY    74  67  78 S12       29.86S
$$

TEXAS HILL COUNTRY AND EDWARDS PLATEAU

CITY           SKY/WX    TMP DP  RH WIND       PRES   REMARKS
LLANO          CLEAR     73  63  68 CALM      29.88R
HORSESHOE BAY  FAIR      75  64  69 CALM      29.84S
KERRVILLE      CLEAR     72  66  81 S5        29.90S
FREDERICKSBRG  CLEAR     70  61  73 CALM      29.88F
ROCKSPRINGS    NOT AVBL
HONDO          CLEAR     76  64  66 S5        29.88R
UVALDE         CLEAR     69  63  83 E5        29.88S
DEL RIO        CLEAR     73  65  75 SE7       29.84S
$$

SOUTHEAST TEXAS

CITY           SKY/WX    TMP DP  RH WIND       PRES   REMARKS
COLLEGE STN    CLOUDY    77  66  68 S15       29.85S
CALDWELL       MOCLDY    76  67  74 S13       29.86S
CROCKETT         N/A    N/A N/A N/A MISG        N/A
BRENHAM        CLOUDY    78  66  66 S13       29.87S
HUNTSVILLE     MOCLDY    76  64  66 S12G20    29.86S
CONROE         PTCLDY    76  66  71 S12       29.88S
HOUSTON BUSH   CLOUDY    77  66  68 S8        29.90R
HOUSTON HOBBY  MOCLDY    74  68  81 S10       29.91S
PERLAND        CLOUDY    76  69  79 S6        29.93S
WHARTON        CLEAR     73  66  79 S9        29.92S
$$

THE UPPER TEXAS COAST

CITY           SKY/WX    TMP DP  RH WIND       PRES   REMARKS
ORANGE         MOCLDY    73  70  91 S7        29.96R
PORT ARTHUR    CLEAR     72  68  87 S9        29.93S
GALVESTON      CLEAR     72  72 100 S9        29.94S
ANGLETON       CLEAR     72  68  87 S9        29.93S
BAY CITY       CLEAR     72  69  90 S6        29.92S
$$

TEXAS COASTAL BEND, RIO GRANDE PLAINS DEEP SOUTH TEXAS

CITY           SKY/WX    TMP DP  RH WIND       PRES   REMARKS
VICTORIA       CLEAR     73  69  87 S10       29.90S
BEEVILLE       FAIR      74  74 100 SE10      29.90R
ROCKPORT       CLEAR     75  71  87 S8        29.90F
PORT ARANSAS   NOT AVBL
PORT LAVACA    NOT AVBL
CORPUS CHRISTI PTCLDY    75  71  87 SE15      29.90S
KINGSVILLE NAS CLEAR     76  73  91 SE13      29.89S
COTULLA        CLEAR     80  63  55 SE10      29.85S
LAREDO         CLEAR     78  65  63 SE9       29.87R
BROWNSVILLE    CLEAR     76  70  82 SE8       29.94R
PORT ISABEL    CLEAR     75  70  84 SE9       29.93R
HEBBRONVILLE   CLEAR     76  64  66 S7        29.90R
MCALLEN        CLEAR     78  70  76 SE14      29.90S
WESLACO        CLEAR     76  68  76 S9        29.90S
FALFURRIAS     CLEAR     78  69  73 SE8       29.89R
EDINBURG       CLEAR     78  68  69 SE7       29.90R
$$



USA.gov is the U.S. government's official web portal to all federal, state and local government web resources and services.